Location: Newark
(48.1500°N, 2.9667°W)
Time: 04:33:51
(UTC+00:00)

Transit 2A - Pass Details

Date: 27 January 2020
Orbit: 600 x 959 km, 66.7° (Epoch: 19 February)

Event Time Altitude Azimuth Distance (km) Brightness Sun altitude
Rises 18:24:50 0° 168° (SSE) 2,893 9.0 -13.7°
Reaches altitude 10° 18:27:51 10° 146° (SE) 1,959 7.9 -14.2°
Enters shadow 18:29:48 15° 120° (ESE) 1,627 7.3 -14.5°
Maximum altitude 18:30:30 16° 109° (ESE) 1,598 - -14.6°
Drops below altitude 10° 18:33:07 10° 71° (ENE) 1,946 - -15.0°
Sets 18:36:06 0° 50° (NE) 2,863 - -15.5°
